Other Public Products
Issued by NWS Charleston, SC

Current Version | Previous Version | Graphics & Text | Print | Product List | Glossary On
Versions: 1 2 3 4 5 6 7 8 9 10 11 12 13 14 15 16 17 18 19 20 21 22 23 24 25 26 27 28 29 30 31 32 33 34 35 36 37 38 39 40 41 42 43 44 45 46 47 48 49 50
802
FPUS82 KCHS 240312
OPUCHS

TEST...KCHS/KSAV Gateway Observations...TEST
National Weather Service Charleston SC
1000 PM EST FRI FEB 23 2018

NOTE: "fair" indicates few or no clouds below 12,000 feet with no
significant weather and/or obstructions to visibility.

SCZ050-WAZ558-NCZ071-TXZ119-213-PAZ071-DCZ001-FLZ074-172-MI076-
NYZ176-178-MAZ016-IL014-TNZ027-NJZ106-GAZ044-MD014-240400-

...Gateway Observations for Charleston International...

CITY           SKY/WX    TMP DP  RH WIND       PRES   REMARKS
Chas Airport   FAIR      66  64  93 SW3       30.32F
Seattle        LGT SNOW  34  31  88 S13       30.18F FOG     WCI  25
Charlotte      FAIR      63  54  72 S5        30.30F
Dallas DFW     LGT RAIN  49  47  93 NW7       30.03F FOG
Dallas Love    DRZL/FOG  48  48 100 NW7       30.05R VSB 1/4
Philladelphia  FOG       43  43 100 SW8       30.27F VSB 3/4
Wash National  DRIZZLE   47  46  97 S7        30.29F FOG
Baltimore      FOG       42  42 100 CALM      30.27F VSB 3/4
Miami          MOCLDY    73  68  84 E15       30.27R
Detroit        CLOUDY    44  39  82 NW12      30.20R
Newark         CLOUDY    40  39  97 W7        30.24F WCI  35
Laguardia      CLOUDY    42  38  85 SW7       30.22F
J F K          CLOUDY    39  39 100 SW5       30.24F FOG     WCI  36
Boston Logan   CLOUDY    37  36  96 SW8       30.17F FOG     WCI  31
Ft. Lauderdale CLOUDY    74  71  91 E18       30.26S
Chicago O`Hare CLOUDY    37  31  78 W8        30.25R WCI  31
Chicago Midway CLOUDY    39  33  79 W7        30.26R WCI  34
Houston Bush   MOCLDY    71  69  93 SE9       30.05S
Houston Hobby  CLOUDY    72  72 100 SE9       30.05S
Nashville      CLOUDY    70  54  56 CALM      30.19R
Atlanta        FAIR      69  59  70 SE6       30.27F

$$

GAZ044-118-TXZ119-213-NCZ071-DCZ001-MDZ014-506-PAZ021-071-NJZ106-
NYZ176-178-MAZ106-OHZ011-021-055-MIZ076-KYZ091-ILZ014-INZ047-
MNZ060-ONZ431-240400-

...Gateway Observations for Savannah International...

CITY           SKY/WX    TMP DP  RH WIND       PRES   REMARKS
Savannah Arpt  FAIR      65  63  93 S3        30.32F
Atlanta        FAIR      69  59  70 SE6       30.27F
Charlotte      FAIR      63  54  72 S5        30.30F
Dallas DFW     LGT RAIN  49  47  93 NW7       30.03F FOG
Houston Bush   MOCLDY    71  69  93 SE9       30.05S
Wash National  DRIZZLE   47  46  97 S7        30.29F FOG
Wash Dulles    FOG       45  45 100 S5        30.27F VSB 1/2
Baltimore      FOG       42  42 100 CALM      30.27F VSB 3/4
Philadelphia   FOG       43  43 100 SW8       30.27F VSB 3/4
Newark         CLOUDY    40  39  97 W7        30.24F WCI  35
Laguardia      CLOUDY    42  38  85 SW7       30.22F
J F K          CLOUDY    39  39 100 SW5       30.24F FOG     WCI  36
Boston         CLOUDY    37  36  96 SW8       30.17F FOG     WCI  31
Pittsburg      MOCLDY    61  56  83 W8        30.17F
Akron          CLOUDY    55  49  80 NW13      30.20R
Cleveland      CLOUDY    50  45  83 W9        30.23S
Cincinnati     CLOUDY    54  53  97 CALM      30.21R
Columbus       FAIR      55  55 100 W5        30.20S
Detroit        CLOUDY    44  39  82 NW12      30.20R
Chicago O`Hare CLOUDY    37  31  78 W8        30.25R WCI  31
Minneapolis    FAIR      21  18  88 W5        30.30R WCI  15
Indianapolis   CLOUDY    45  43  93 NW10      30.25S
Toronto Canada CLOUDY    43  39  87 W8        30.10R

$$




USA.gov is the U.S. government's official web portal to all federal, state and local government web resources and services.